Regional Weather Roundup
Issued by NWS

Home | Current Version | Previous Version | Text Only | Print | Product List | Glossary Off
Versions: 1 2 3 4 5 6 7 8 9 10 11 12 13 14 15 16 17 18 19 20 21 22 23 24 25 26 27 28 29 30 31 32 33 34 35 36 37 38 39 40 41 42 43 44 45 46 47 48 49 50

000
ASUS43 KDTX 281110
RWRMI
MICHIGAN HOURLY REGIONAL WEATHER ROUNDUP
NATIONAL WEATHER SERVICE DETROIT/PONTIAC MI
700 AM EDT MON JUL 28 2014

NOTE: "FAIR" INDICATES FEW OR NO CLOUDS BELOW 12,000 FEET WITH NO
SIGNIFICANT WEATHER AND/OR OBSTRUCTION TO VISIBILITY.

MIZ047>049-052>055-059>063-066>070-074>076-081>083-281200-
SOUTHEAST LOWER MICHIGAN

CITY           SKY/WX    TMP DP  RH WIND       PRES   REMARKS
ADRIAN         CLOUDY    62  57  83 N17G23    29.83R
ALMA           CLOUDY    57  55  92 N6        29.89R
ANN ARBOR      CLOUDY    62  57  83 N12       29.81R
BAD AXE        CLOUDY    58  52  81 N10G16    29.84R
CARO           PTCLDY    60  57  92 N9        29.84R
DETROIT CITY   LGT RAIN  65  57  75 N13G22    29.77R
DETROIT        LGT RAIN  63  58  83 NW9       29.79R
FLINT          PTCLDY    61  55  81 N14G23    29.84R
GROSSE ILE     CLOUDY    64  59  82 N12G18    29.76R
HILLSDALE      MOCLDY    62  60  93 N8        29.85R
HOWELL         CLOUDY    59  57  92 N7        29.84R

CITY           SKY/WX    TMP DP  RH WIND       PRES   REMARKS
JACKSON        CLOUDY    61  57  87 N6        29.85R
LAMBERTVILLE   CLOUDY    63  59  88 NW8       29.80R
LANSING        CLOUDY    60  57  89 N8        29.87R
LAPEER         CLOUDY    58  55  87 N8        29.82R
MASON          CLOUDY    60  57  89 N9        29.86R
MONROE         CLOUDY    64  59  82 N10G17    29.77R
MT. CLEMENS    CLOUDY    63  57  82 N16G24    29.76R
PONTIAC        CLOUDY    61  55  82 N13G20    29.80R
PORT HOPE        N/A     60  53  77 N20G26    29.82R
PORT HURON     CLOUDY    61  59  94 N14       29.76R
TRI CITIES     CLOUDY    60  55  83 N12       29.87R
TROY           CLOUDY    62  57  84 N10G18    29.80R
SAGINAW HB     CLOUDY    61  57  88 N14       29.85R
$$
MIZ043>046-050>051-056>058-064>065-071>073-077>080-281200-
SOUTHWEST LOWER MICHIGAN

CITY           SKY/WX    TMP DP  RH WIND       PRES   REMARKS
BATTLE CREEK   PTCLDY    61  57  87 NW8       29.89R
BENTON HARBOR  MOCLDY    58  54  86 N9        29.93R
BIG RAPIDS     CLEAR     55  55 100 NW5       29.92R
COLDWATER      CLOUDY    64  59  85 N9        29.87R
FREMONT        FAIR      54  54  99 N8        29.93R
HOLLAND        CLEAR     58  53  84 NW7       29.93R
GRAND RAPIDS   PTCLDY    58  55  90 NW9       29.90R
IONIA          FAIR      56  55  94 NW6       29.88R
KALAMAZOO      MOCLDY    60  55  83 NW9       29.91R
LUDINGTON      CLOUDY    55  51  89 N10G20    29.97R
MARSHALL       CLOUDY    60  57  88 N3        29.87R
MOUNT PLEASANT CLEAR     56  55  93 NW3       29.89R
MUSKEGON       MOCLDY    57  52  83 N12       29.94R
SOUTH HAVEN    PTCLDY    56  55  98 N8G16     29.93R
$$
MIZ016>042-281200-
NORTHERN LOWER MICHIGAN

CITY           SKY/WX    TMP DP  RH WIND       PRES   REMARKS
ALPENA         CLOUDY    55  48  76 N13       29.90R
BEAVER ISLAND  PTCLDY    51  46  82 N7G16     29.99R
BELLAIRE       CLOUDY    55  53  90 CALM      29.94R
CADILLAC       CLOUDY    55  54  97 N6        29.93R
CHARLEVOIX     CLOUDY    57  50  77 NE12G18   29.98R
FRANKFORT      CLOUDY    56  49  78 N7        29.97R
GAYLORD        CLOUDY    53  48  83 VRB3      29.93R
GRAYLING       CLOUDY    54  52  92 N5        29.93R
HARBOR SPRINGS CLEAR     53  48  82 N8        29.95R
HOUGHTON LAKE  PTCLDY    55  51  86 N9        29.91R
MANISTEE       CLOUDY    55  48  76 N7        29.97R
OSCODA         CLOUDY    59  51  75 N13       29.87R
PELLSTON       MOCLDY    53  45  74 N10       29.96R
ROGERS CITY    CLOUDY    56  50  81 N12       29.93R
TRAVERSE CITY  CLOUDY    58  52  80 N10       29.94R
$$
MIZ007>008-015-281200-
EASTERN UPPER MICHIGAN

CITY           SKY/WX    TMP DP  RH WIND       PRES   REMARKS
KINROSS        CLEAR     46  43  87 N6        29.97R
MACKINAC ISLAN CLEAR     50  44  78 N14G20    29.96R
NEWBERRY       CLEAR     43  41  92 NW7       30.00R
S. S. MARIE    CLOUDY    51  41  68 NW6       29.97R
MUNISING         N/A     52  45  77 NW8       30.04R
$$
MIZ004>006-011>014-085-281200-
CENTRAL UPPER MICHIGAN

CITY           SKY/WX    TMP DP  RH WIND       PRES   REMARKS
MANISTIQUE     CLEAR     45  41  88 N7        30.01R
ESCANABA       CLEAR     46  41  81 NW3       30.04R
MENOMINEE      CLEAR     48  43  81 NW6       30.05R
SAWYER-GWINN   MOCLDY    43  41  93 SW3       30.06R
$$
MIZ001>003-009>011-084-281200-
WESTERN UPPER MICHIGAN

CITY           SKY/WX    TMP DP  RH WIND       PRES   REMARKS
IRON MOUNTAIN  CLEAR     47  44  90 NW5       30.07R
COPPER HARBOR    N/A     53  48  83 W6        30.05S
IRONWOOD       MOCLDY    50  50 100 W6        30.10S
$$

ABBREVIATIONS USED IN REMARKS
   TC - TEMPERATURE IN CELSIUS
  WCI - WIND CHILL INDEX
   HX - HEAT INDEX
  VSB - VISIBILITY



USA.gov is the U.S. government's official web portal to all federal, state and local government web resources and services.